Location: �terpigny
(49.8910°N, 2.9249°E)
Time: 10:59:51
(UTC+00:00)

Cosmos 1943 Rocket - Pass Details

Date: 24 October 2021
Orbit: 811 x 845 km, 71.0° (Epoch: 30 November)

Event Time Altitude Azimuth Distance (km) Brightness Sun altitude
Rises 18:40:51 0° 331° (NNW) 3,415 5.8 -20.2°
Reaches altitude 10° 18:44:58 10° 360° (N) 2,478 4.7 -20.8°
Maximum altitude 18:47:24 13° 25° (NNE) 2,287 4.3 -21.2°
Enters shadow 18:47:58 13° 32° (NNE) 2,298 4.2 -21.3°
